Location: Unspecified
(0.0000°N, 0.0000°E)
Time: 14:08:05
(UTC+00:00)

Vanguard 1 Rocket - Pass Details

Date: 21 November 2019
Orbit: 650 x 4226 km, 34.3° (Epoch: 08 December)

Event Time Altitude Azimuth Distance (km) Brightness Sun altitude
Rises 16:38:13 0° 236° (SW) 8,133 13.9 15.9°
Reaches altitude 10° 16:46:45 10° 221° (SW) 7,377 13.3 13.9°
Maximum altitude 17:04:36 22° 178° (S) 6,235 11.9 9.7°
Drops below altitude 10° 17:19:43 10° 134° (SE) 6,276 11.4 6.1°
Sets 17:25:55 0° 118° (ESE) 6,713 11.4 4.7°
